TimeCST,TemperatureF,Dew PointF,Humidity,Sea Level PressureIn,VisibilityMPH,Wind Direction,Wind SpeedMPH,Gust SpeedMPH,PrecipitationIn,Events,Conditions,WindDirDegrees,DateUTC
12:56 AM,22.1,18.1,85,30.33,10.0,SW,8.1,-,N/A,,Clear,220,2013-01-05 06:56:00
1:56 AM,20.1,16.2,85,30.33,10.0,SSW,8.1,-,N/A,,Clear,210,2013-01-05 07:56:00
2:56 AM,18.1,15.1,88,30.33,10.0,SSW,8.1,-,N/A,,Clear,210,2013-01-05 08:56:00
3:56 AM,19.0,15.1,85,30.32,10.0,SSW,9.2,-,N/A,,Clear,210,2013-01-05 09:56:00
4:56 AM,20.1,16.2,85,30.31,10.0,SW,6.9,-,N/A,,Clear,220,2013-01-05 10:56:00
5:56 AM,18.1,14.0,84,30.30,9.0,SSW,6.9,-,N/A,,Clear,200,2013-01-05 11:56:00
6:56 AM,20.1,16.2,85,30.30,10.0,South,8.1,-,N/A,,Clear,190,2013-01-05 12:56:00
8:56 AM,25.2,20.1,81,30.30,10.0,SSW,13.8,-,N/A,,Clear,210,2013-01-05 14:56:00
9:56 AM,29.1,23.0,78,30.29,10.0,SSW,12.7,-,N/A,,Clear,210,2013-01-05 15:56:00
10:56 AM,32.0,25.2,76,30.27,10.0,SW,13.8,-,N/A,,Clear,220,2013-01-05 16:56:00
11:56 AM,32.0,26.1,79,30.25,10.0,SW,15.0,-,N/A,,Mostly Cloudy,220,2013-01-05 17:56:00
12:14 PM,32.0,26.6,80,30.19,1.0,SW,16.1,-,0.00,Snow,Light Snow,230,2013-01-05 18:14:00
12:18 PM,32.0,26.6,80,30.19,0.5,SW,13.8,-,0.00,Snow,Light Snow,230,2013-01-05 18:18:00
12:56 PM,31.1,30.0,96,30.22,2.0,SW,10.4,-,0.00,Snow,Light Snow,230,2013-01-05 18:56:00
1:23 PM,32.0,30.2,93,30.14,5.0,SW,8.1,-,0.00,Snow,Light Snow,230,2013-01-05 19:23:00
1:56 PM,32.9,30.0,89,30.19,9.0,SW,9.2,-,0.00,,Mostly Cloudy,220,2013-01-05 19:56:00
2:56 PM,34.0,31.1,89,30.17,8.0,South,10.4,-,N/A,,Scattered Clouds,170,2013-01-05 20:56:00
3:56 PM,34.0,32.0,92,30.16,9.0,South,16.1,-,N/A,,Overcast,190,2013-01-05 21:56:00
4:56 PM,32.9,32.0,96,30.15,8.0,South,15.0,-,N/A,,Overcast,190,2013-01-05 22:56:00
5:56 PM,34.0,31.1,89,30.15,10.0,South,16.1,-,N/A,,Overcast,190,2013-01-05 23:56:00
6:23 PM,33.8,30.2,87,30.09,3.0,SSW,17.3,-,0.00,Snow,Light Snow,200,2013-01-06 00:23:00
6:30 PM,33.8,30.2,87,30.10,2.0,SSW,18.4,-,0.00,Snow,Light Snow,210,2013-01-06 00:30:00
6:56 PM,32.9,31.1,93,30.16,2.0,SSW,20.7,-,0.00,Snow,Light Snow,210,2013-01-06 00:56:00
7:56 PM,32.9,32.0,96,30.14,2.5,SSW,18.4,24.2,0.00,Snow,Light Snow,210,2013-01-06 01:56:00
7:58 PM,33.8,32.0,93,30.08,2.5,SSW,18.4,24.2,0.00,Snow,Light Snow,210,2013-01-06 01:58:00
8:16 PM,33.8,32.0,93,30.08,4.0,SSW,18.4,-,0.00,Snow,Light Snow,210,2013-01-06 02:16:00
8:45 PM,33.8,32.0,93,30.08,8.0,SW,17.3,26.5,0.00,Snow,Light Snow,220,2013-01-06 02:45:00
8:56 PM,34.0,32.0,92,30.12,6.0,SW,15.0,-,0.00,Snow,Light Snow,220,2013-01-06 02:56:00
9:23 PM,33.8,32.0,93,30.06,10.0,SW,15.0,-,0.00,,Overcast,220,2013-01-06 03:23:00
9:56 PM,34.0,31.1,89,30.10,10.0,SSW,13.8,-,0.00,,Overcast,210,2013-01-06 03:56:00
10:56 PM,34.9,31.1,86,30.08,10.0,SW,13.8,-,N/A,,Overcast,220,2013-01-06 04:56:00
11:56 PM,34.9,31.1,86,30.05,10.0,SSW,16.1,-,N/A,,Overcast,210,2013-01-06 05:56:00